{"data":{"norad_id":69544,"epoch":"2026-09-19T10:16:47.389728Z","epoch_age_seconds":125996,"freshness":"FRESH","line1":"1 69544U 26134G   26262.42832627  .00003184  00000+0  20152-3 0  9994","line2":"2 69544  97.6959 332.9918 0016366 309.8974  50.0815 15.09633207 14529","mean_motion":15.09633207,"eccentricity":0.0016366,"inclination_deg":97.6959,"raan_deg":332.9918,"arg_perigee_deg":309.8974,"mean_anomaly_deg":50.0815,"bstar":0.00020152,"rev_number":1452,"period_min":95.387408896604,"perigee_km":526.00209733129,"apogee_km":548.63777096815,"semimajor_km":6915.4569341497,"source":"CELESTRAK","updated_at":"2026-09-20T09:00:24.950209Z"}}